Regional Weather Roundup
Issued by NWS Upton, NY

Current Version | Previous Version | Text Only | Print | Product List | Glossary On
Versions: 1 2 3 4 5 6 7 8 9 10 11 12 13 14 15 16 17 18 19 20 21 22 23 24 25 26 27
000 ASUS41 KOKX 251404 RWROKX REGIONAL WEATHER ROUNDUP NATIONAL WEATHER SERVICE NEW YORK NY 1000 AM EDT WED MAY 25 2016 NOTE: "FAIR" INDICATES FEW OR NO CLOUDS BELOW 12,000 FEET WITH NO SIGNIFICANT WEATHER AND/OR OBSTRUCTIONS TO VISIBILITY. NYZ071-072-176-178-NJZ106-104-251500- NEW YORK CITY METRO AREA CITY SKY/WX TMP DP RH WIND PRES REMARKS CENTRAL PARK SUNNY 73 48 41 NW6 30.10S LAGUARDIA APRT MOSUNNY 76 53 44 CALM 30.07R KENNEDY INTL MOSUNNY 75 51 43 SW7 30.08S NEWARK/LIBERTY MOSUNNY 79 46 31 W8 30.07S BRNX BOT. GARD N/A 73 50 43 CALM 30.09R TETERBORO SUNNY 77 45 32 W7 30.06S $$ NYZ177-179-078>081-251500- LONG ISLAND NEW YORK CITY SKY/WX TMP DP RH WIND PRES REMARKS FARMINGDALE SUNNY 77 49 37 W8 30.06S ISLIP MOSUNNY 76 51 41 NW9 30.05S SHIRLEY SUNNY 76 53 44 NW9 30.06S RIVERHEAD N/A 73 55 53 NW2 30.04S WESTHAMPTON SUNNY 72 53 51 NW8 30.06S EAST HAMPTON FAIR 69 56 62 W6 30.04S MONTAUK POINT N/A 65 58 78 W8 30.06R $$ NYZ052-065-067-251500- HUDSON VALLEY CITY SKY/WX TMP DP RH WIND PRES REMARKS WHITE PLAINS SUNNY 73 49 42 NW9 30.06S NEWBURGH SUNNY 70 54 56 W10 30.08S MONTGOMERY SUNNY 72 54 53 SW8 30.06S POUGHKEEPSIE SUNNY 71 51 49 SW7 30.06R ALBANY SUNNY 70 54 56 S6 30.04F $$ NJZ001-105-106-008-010-013-015-019>022-104-251500- NEW JERSEY CITY SKY/WX TMP DP RH WIND PRES REMARKS NEWARK/LIBERTY MOSUNNY 79 46 31 W8 30.07S TETERBORO SUNNY 77 45 32 W7 30.06S CALDWELL SUNNY 76 47 35 VRB5 30.08S MORRISTOWN SUNNY 77 46 33 NW10 30.08S SOMERVILLE SUNNY 74 51 44 VRB6 30.08S SUSSEX SUNNY 71 52 50 VRB3 30.09F ANDOVER N/A 72 53 51 CALM 30.10S TRENTON SUNNY 74 48 39 W8 30.10S MILLVILLE SUNNY 78 49 35 NW8 30.12S ATLANTIC CITY SUNNY 78 50 37 NW9 30.11S WRIGHTSTOWN NOT AVBL TOMS RIVER SUNNY 75 52 43 NW9 30.10S BELMAR SUNNY 76 54 46 W8 30.10S $$ PAZ047>061-062-071-251500- EASTERN PENNSYLVANIA CITY SKY/WX TMP DP RH WIND PRES REMARKS PHILADELPHIA MOSUNNY 79 46 31 NW6 30.12S ALLENTOWN SUNNY 74 51 44 W6 30.12S SCRANTON SUNNY 68 47 46 W7 30.13S $$ CTZ002-004>006-009-010-012-RIZ004-006-007-MAZ004-011-015-251500- SOUTHERN NEW ENGLAND IN CT CITY SKY/WX TMP DP RH WIND PRES REMARKS BRADLEY INTL SUNNY 71 54 54 SW3 30.01S HARTFORD SUNNY 72 55 55 S7 30.03R DANBURY SUNNY 70 55 59 SW7 30.07S WTRBRY/OXFORD MOSUNNY 66 55 68 NW3 30.07R BRIDGEPORT SUNNY 69 56 62 SW8 30.04F MERIDEN SUNNY 72 54 53 VRB3 30.03F NEW HAVEN SUNNY 66 58 75 S5 30.04F CHESTER FAIR 72 52 49 VRB5G15 30.04S GROTON SUNNY 62 60 93 SW8 30.03S WILLIMANTIC SUNNY 72 54 53 VRB6 30.02F IN RI CITY SKY/WX TMP DP RH WIND PRES REMARKS PROVIDENCE MOSUNNY 69 58 67 S5 30.02R BLOCK ISLAND SUNNY 62 57 83 SW12 30.04S WESTERLY MOSUNNY 61 55 81 SW13 30.03F IN MA CITY SKY/WX TMP DP RH WIND PRES REMARKS BOSTON MOSUNNY 63 57 81 SE8 30.00S WORCESTER SUNNY 69 48 47 VRB7 30.02R WESTFIELD SUNNY 68 55 63 S6 30.01S PROVINCETOWN MOSUNNY 58 54 86 SW8 30.03S NANTUCKET MOSUNNY 62 56 80 SW8 30.04S $$ ANZ330-335-338-340-345-350-353-355-251500- COASTAL MARINE OBSERVATIONS STATION/POSITION TIME SKY/WX TEMP WIND PRES VSBY WAVE AIR SEA DIR/SP/G HT/PER (UTC) (F) (DEG/KT/KT) (MB) (MI) (FT/S) NY HARB ENTRANCE 1250 60 58 260/ 4/ 4 1018.2 2/ 8 20S FIRE ISLAND 1250 57 55 230/ 6/ 8 1018.1 3/ 9 GREAT SOUTH BAY 1315 65 64 240/ 8/ 8 N/A 23 SSW MONTAUK P 1350 56 54 240/ 10/ 10 1017.1 3/ 8 15 E BARNEGAT LI 1322 56 N/A 3/ 8 HUDSON CANYON 1250 56 53 1018.9 4/10 KINGS POINT 1300 66 58 1017.9 EXECUTION ROCKS NOT AVBL CENTRAL LI SOUND 1300 57 260/ 6/ 8 N/A 0 EASTERN LI SOUND 1300 55 52 270/ 6/ 8 N/A ROBBINS REEF 1300 69 280/ 9/ 9 1017.6 $$ >>>>>>>>>>>>>>>>>>>>>>>>>>>> KEY <<<<<<<<<<<<<<<<<<<<<<<<<<< > < > SKY/WX - SKY CONDITION/PRESENT WEATHER < > TMP - TEMPERATURE IN FAHRENHEIT < > DP - DEWPOINT IN FAHRENHEIT < > RH - RELATIVE HUMIDITY IN PERCENT < > WIND - DIRECTION AND SPEED IN MPH < > PRES - MEAN SEA LEVEL PRESSURE IN INCHES OF HG < > WCI - WIND CHILL INDEX < > VSB - VISIBILITY IN MILES < > HX - HEAT INDEX < > TC - TEMPERATURE IN CELSIUS < > VRB - VARIABLE WIND DIRECTION < > < >>>>>>>>>>>>>>>>>>>>>>>>>>>> KEY <<<<<<<<<<<<<<<<<<<<<<<<<<<

USA.gov is the U.S. government's official web portal to all federal, state and local government web resources and services.